CAPE
0 0 0 0 0 0 0 0 0 0 0 0 0 0 0 0 0 0 0 0 0 0 0 0 0 0 0 0 0 43 816 899 918 1052 1131 1293 1210 1247 1315 1538 1581 1614 1606 1528 1622 1693 1787 1744 1746 1698 1683 1597 1524 1404 1394 1340 1228 1134 1096 1044 1139 1031 906 901 812 1002 779 662 675 826 648 656 686 876 999 1024 975 919 1014 1020 1086 1075 931 758 637 604
0 0 0 0 0 0 0 0 0 0 0 0 0 0 0 0 0 0 0 0 0 0 0 0 0 0 0 0 0 0 229 802 974 1121 1102 1141 1055 1150 1114 1503 1629 1783 1874 1838 1807 1754 1724 1715 1678 1651 1621 1548 1474 1370 1363 1386 1299 1264 1154 1142 1176 1076 1096 1035 939 1144 968 743 754 906 840 716 584 702 931 992 939 821 876 1018 974 1063 1011 806 680 624
0 0 0 0 0 0 0 0 0 0 0 0 0 0 0 0 0 0 0 0 0 0 0 0 0 0 0 0 0 1 248 769 1025 1077 1100 1007 1102 998 1098 1499 1812 2013 2021 1974 1873 1759 1727 1688 1615 1611 1594 1501 1395 1256 1282 1351 1421 1403 1277 1181 1204 1150 1156 1168 1136 1172 1126 941 786 728 726 644 530 548 630 628 627 713 777 1017 967 925 984 922 734 624
0 0 0 0 0 0 0 0 0 0 0 0 0 0 0 0 0 0 0 0 0 0 0 0 0 0 0 0 0 0 8 616 987 955 1055 1119 1031 1018 1100 1516 1992 2030 2055 1995 1916 1870 1802 1652 1553 1556 1574 1496 1361 1195 1195 1261 1376 1456 1355 1152 1218 1223 1168 1235 1251 1159 1114 939 838 748 767 652 526 581 564 647 719 768 837 860 950 901 854 814 734 608
0 0 0 0 0 0 0 0 0 0 0 0 0 0 0 0 0 0 0 0 0 0 0 0 0 0 0 0 0 0 0 204 872 980 1044 1003 942 975 1070 1643 1903 1962 2035 1996 1958 1975 1902 1693 1591 1576 1562 1442 1348 1230 1265 1351 1394 1406 1338 1268 1209 1198 1246 1282 1269 1190 1127 1093 996 898 784 799 745 653 638 550 671 667 693 791 837 895 855 775 708 688
0 0 0 0 0 0 0 0 0 0 0 0 0 0 0 0 0 0 0 0 0 0 0 0 0 0 0 0 0 0 0 0 683 958 1061 1040 970 962 995 1584 1881 1875 1950 1946 2008 2060 1966 1790 1655 1603 1584 1490 1382 1331 1372 1534 1515 1408 1323 1404 1359 1277 1350 1368 1302 1230 1192 1169 1101 917 832 840 898 861 727 577 571 640 687 714 754 858 804 742 790 976
0 0 0 0 0 0 0 0 0 0 0 0 0 0 0 0 0 0 0 0 0 0 0 0 0 0 0 0 0 0 0 0 9 947 922 1010 1042 906 954 1156 1927 1890 1941 1985 2060 2097 1997 1913 1734 1677 1622 1519 1386 1287 1415 1582 1534 1321 1301 1408 1450 1419 1401 1409 1332 1195 1169 1150 1081 1034 917 828 822 884 768 586 555 606 727 664 693 723 750 774 988 1156
0 0 0 0 0 0 0 0 0 0 0 0 0 0 0 0 0 0 0 0 0 0 0 0 0 0 0 0 0 0 0 0 0 0 736 930 989 923 893 949 1609 1948 2034 2064 2094 2123 2050 1915 1738 1656 1522 1387 1320 1236 1159 1367 1304 1029 1010 1312 1379 1400 1343 1312 1274 1216 1145 1074 1021 958 911 790 830 761 718 633 594 538 642 665 601 647 679 760 1002 1111
0 0 0 0 0 0 0 0 0 0 0 0 0 0 0 0 0 0 0 0 0 0 0 0 0 0 0 0 76 0 0 0 201 200 0 271 926 977 809 845 1199 1929 2024 2021 2015 2075 2070 2046 1952 1846 1656 1477 1346 1013 1001 986 1005 836 1016 1279 1319 1307 1322 1276 1230 1249 1204 1109 1085 1056 944 986 783 669 563 577 565 539 589 565 547 610 609 618 849 859
0 0 0 0 0 0 0 0 0 0 0 0 0 0 0 0 0 0 0 0 0 0 0 0 0 0 0 346 290 262 65 52 247 369 458 185 39 918 901 808 1001 1510 1916 1970 1959 1885 1748 1637 1624 1691 1598 1301 1025 886 1059 1197 1151 1211 1449 1400 1377 1244 1232 1213 1192 1248 1197 1179 1039 957 874 929 911 734 602 500 576 562 530 509 527 591 636 588 778 804
0 0 0 0 0 0 0 0 0 0 0 0 0 0 0 0 0 0 0 0 0 0 0 0 0 0 0 500 428 529 311 266 504 584 692 930 1181 1274 1298 1359 1407 1289 1309 1472 1640 1654 1647 1611 1635 1665 1552 1306 1042 1000 1087 1352 1532 1507 1502 1709 1514 1350 1182 1189 1189 1220 1222 1159 1002 1026 969 974 878 668 500 479 567 531 635 606 562 667 699 752 809 966
0 0 0 0 0 0 0 0 0 0 0 0 0 0 0 0 0 0 0 0 0 0 0 0 0 0 0 321 656 381 309 540 742 929 1053 1192 1310 1320 1407 1563 1640 1522 1419 1350 1389 1508 1553 1499 1445 1404 1370 1204 1014 975 1075 1296 1438 1500 1320 1502 1321 1371 1226 1328 1331 1163 938 1086 1045 752 798 718 595 488 548 550 590 562 625 621 574 593 683 801 777 826
0 0 0 0 0 0 0 0 0 0 0 0 0 0 0 0 0 0 0 0 0 0 0 0 0 0 0 720 838 743 779 658 634 1015 1157 1180 1267 1379 1447 1624 1765 1754 1696 1678 1681 1543 1388 1326 1224 1152 1080 1018 996 882 928 1102 1177 1097 1449 1115 818 882 1017 1071 1291 1189 893 1041 1110 989 750 584 676 590 413 491 591 638 576 680 688 656 680 689 572 560
0 0 0 0 0 0 0 0 0 0 0 0 0 0 0 0 0 0 0 0 0 0 0 0 0 0 612 822 861 1072 852 757 738 914 1185 1223 1235 1257 1360 1530 1744 1881 1816 1677 1668 1641 1560 1409 1262 1135 1132 1099 1132 1036 794 772 804 834 905 632 768 913 958 958 1291 1193 1114 1055 1034 967 813 780 767 670 531 445 619 664 660 677 777 748 712 639 565 590
0 0 0 0 0 0 0 0 0 0 0 0 0 0 0 0 0 0 0 0 0 0 0 0 0 0 328 772 710 1100 1132 1016 868 841 919 1074 1183 1188 1181 1246 1472 1714 1836 1736 1708 1628 1307 1110 1098 1140 1130 960 741 664 753 672 616 644 684 638 813 1138 1046 930 1056 945 1110 904 963 874 788 727 694 736 667 675 741 655 545 636 805 859 746 709 625 566
0 0 0 0 0 0 0 0 0 0 0 0 0 0 0 0 0 0 0 0 0 0 0 0 0 205 428 799 917 1026 1116 1141 1104 974 928 916 1032 1168 1222 1238 1266 1296 1388 1562 1637 1600 1562 1483 1229 907 568 491 408 367 348 400 560 624 613 746 726 833 831 787 862 1006 1012 935 895 801 692 599 706 747 704 670 687 677 618 652 802 906 872 758 566 558
0 0 0 0 0 0 0 0 0 0 0 0 0 0 0 0 0 0 0 0 0 0 0 240 192 360 542 701 731 905 844 933 1029 1065 1119 1088 974 988 1010 1032 1110 1195 1176 1212 1181 1123 1093 1005 864 845 652 576 478 324 305 502 550 761 906 944 978 893 709 662 863 885 812 756 794 726 689 644 683 773 675 608 648 608 664 718 730 885 746 635 612 697
0 0 0 0 0 0 0 0 0 0 0 0 0 0 0 0 0 0 0 0 0 0 0 4 465 426 395 661 485 843 746 807 887 942 1099 1021 1188 979 910 804 913 1007 966 914 849 773 750 746 661 608 591 418 336 412 481 611 680 606 642 755 913 759 455 649 758 736 598 734 808 783 809 722 670 699 629 610 606 589 578 668 669 716 653 667 751 688
0 0 0 0 0 3 0 0 0 0 0 0 0 0 0 0 0 0 0 0 0 0 0 0 292 363 335 453 529 776 598 840 717 748 884 844 846 866 764 846 827 775 896 819 751 770 774 754 757 636 525 440 425 414 848 714 512 254 304 405 476 705 444 475 910 790 601 767 834 739 774 762 754 723 691 779 654 604 565 555 548 567 649 764 720 649
0 0 0 0 0 1 0 0 0 0 0 0 0 0 0 0 0 0 0 0 0 0 0 0 39 82 211 368 714 649 760 821 628 624 577 655 752 745 694 685 604 627 692 744 696 657 657 683 644 624 622 561 434 362 405 454 384 384 368 454 398 548 572 666 710 843 926 910 963 767 691 823 768 719 734 891 805 719 502 412 501 502 790 741 648 600
0 0 2 4 2 6 4 0 0 0 5 0 0 0 0 0 0 0 0 0 0 0 0 0 21 73 189 331 519 725 644 565 566 430 529 575 591 635 647 626 518 602 671 700 690 710 693 638 600 708 609 455 401 400 420 431 395 431 423 495 109 692 741 867 876 803 960 862 856 732 825 861 862 934 874 871 780 550 567 417 498 653 842 627 565 580
0 0 2 6 1 14 19 5 2 3 5 0 0 0 0 0 0 0 0 0 0 0 0 0 23 80 292 345 551 658 596 482 466 468 491 480 500 667 712 573 678 590 656 707 725 707 671 655 604 635 670 650 584 608 589 562 544 538 448 452 508 751 880 852 943 903 980 960 867 789 886 923 1049 1008 970 695 566 607 568 414 444 669 762 586 453 490
31 1 2 14 4 14 20 20 11 12 13 12 0 2 0 0 0 0 0 0 0 0 0 0 128 53 281 418 626 613 578 579 608 609 547 506 524 491 510 503 503 466 560 597 620 572 539 486 462 586 652 669 637 540 572 684 620 582 564 706 634 930 1065 1086 1045 1014 975 875 877 899 957 837 863 837 663 448 560 455 394 427 483 656 693 585 422 329
405 4 0 7 2 13 29 35 38 24 18 87 94 74 21 0 0 0 0 0 0 0 0 0 3 18 320 497 580 532 514 494 487 533 419 395 398 479 473 232 417 441 519 500 442 506 544 490 185 230 190 171 459 564 558 627 591 539 474 616 883 1034 1130 1198 1084 948 921 844 743 949 956 737 679 709 449 554 584 372 416 472 538 500 527 446 375 325
16 0 0 0 4 16 18 32 34 13 59 78 82 90 21 6 0 0 1 2 1 0 0 0 8 134 329 439 452 366 359 413 409 351 428 434 380 413 463 380 230 133 411 424 459 496 490 489 478 226 210 234 178 363 439 388 500 520 545 586 736 778 798 989 935 921 849 778 689 856 881 616 540 638 479 449 514 406 374 420 410 385 390 372 310 145
37 14 0 0 0 9 22 21 41 28 18 62 81 73 50 10 0 6 6 0 0 8 0 0 90 228 417 438 395 402 393 338 342 348 409 434 538 497 414 277 206 17 0 254 342 328 365 411 420 449 407 140 205 218 173 384 421 421 518 569 473 702 647 686 779 834 845 808 606 664 775 556 552 556 392 309 389 371 375 436 433 392 342 226 178 126
98 84 71 38 0 1 20 29 45 142 49 196 88 51 82 85 16 20 0 0 0 24 3 58 185 509 484 407 418 329 341 286 208 224 295 362 362 403 266 174 45 14 178 210 130 200 293 204 76 235 352 330 113 116 143 132 246 406 479 527 504 470 591 596 617 784 706 636 507 482 411 500 514 428 279 259 344 360 289 190 318 258 194 204 185 30
115 124 99 98 87 83 99 144 84 131 141 129 70 30 63 52 0 0 0 51 6 3 34 84 396 502 477 487 407 246 174 196 220 196 229 293 326 232 188 212 205 100 0 182 196 229 105 67 190 152 161 132 31 184 245 105 114 132 160 404 454 442 414 344 339 488 601 497 300 89 390 456 240 221 209 202 124 316 296 294 270 219 196 214 204 0
144 180 126 144 153 52 115 94 52 24 38 147 162 106 33 111 82 106 54 4 10 0 53 239 403 443 497 459 321 212 129 6 12 67 120 250 117 85 201 219 286 244 258 309 259 210 155 117 64 93 136 92 44 36 35 28 91 57 30 0 36 296 297 235 0 0 388 182 16 0 318 22 173 31 329 162 221 211 267 298 280 254 179 206 178 0
148 173 104 97 111 120 131 98 91 51 37 23 157 192 191 156 151 137 40 0 0 5 167 253 290 425 378 408 289 198 115 105 11 3 91 231 208 112 29 30 56 156 247 369 376 208 311 230 245 263 194 86 43 4 3 2 28 51 167 115 103 109 97 235 29 0 0 0 0 317 383 327 216 173 297 314 283 231 215 218 187 0 74 191 160 64
90 165 66 52 135 92 96 60 77 62 40 17 5 112 207 206 143 117 62 9 2 110 269 311 228 337 272 236 230 194 169 92 35 54 44 125 248 69 70 63 184 250 331 350 216 349 366 373 338 238 156 83 6 6 9 7 4 3 0 4 5 6 0 4 0 0 1 210 164 201 222 190 222 197 233 224 230 13 69 93 68 88 147 132 89 0
0 108 66 91 42 60 37 39 20 27 23 10 8 6 59 164 119 104 8 18 6 143 275 370 0 0 0 1 80 217 42 38 34 66 108 1 64 10 214 69 111 187 265 342 329 337 330 303 264 209 102 35 2 5 4 5 4 4 5 6 16 36 84 13 6 24 46 129 158 300 376 308 223 254 197 107 125 0 13 58 126 63 147 65 0 0
0 10 21 28 49 20 23 25 29 8 10 0 0 0 0 3 12 156 78 27 115 23 19 0 0 3 1 1 6 18 30 54 8 54 109 36 171 1 21 218 128 78 1 197 296 324 336 263 222 144 32 4 4 2 1 5 6 7 5 10 5 35 148 184 12 25 44 94 55 395 247 222 149 146 214 197 107 40 28 32 56 122 156 53 45 0
0 0 7 18 18 18 1 17 18 10 3 0 25 0 0 0 9 170 37 38 46 34 36 4 10 8 5 0 0 28 4 46 18 8 55 50 2 40 188 135 104 109 21 0 56 263 277 202 154 88 35 27 16 2 1 0 0 4 7 3 6 6 40 130 230 283 143 120 3 101 300 245 211 113 211 201 199 32 28 21 9 55 99 56 68 64
5 0 5 1 0 0 18 14 3 0 0 0 0 2 0 3 13 88 53 92 133 78 66 32 22 50 22 3 3 2 15 8 9 32 36 1 27 98 97 158 42 16 1 13 8 84 222 216 124 69 58 50 33 20 9 2 2 4 11 16 4 0 0 0 90 81 81 135 43 105 69 57 200 141 130 193 116 40 21 32 29 8 0 25 14 47
58 0 54 26 2 29 7 19 0 0 0 1 3 2 0 3 22 62 82 119 137 159 152 133 158 165 104 95 50 5 4 1 52 30 35 4 4 84 9 30 107 76 22 11 3 18 154 148 101 88 76 65 56 56 21 4 4 1 3 7 7 0 0 0 0 16 33 86 7 10 79 56 20 144 97 130 81 28 33 32 5 6 10 23 0 0
0 0 34 13 10 30 4 1 0 0 0 0 2 1 0 6 0 20 58 113 116 140 91 38 43 8 24 41 9 9 4 4 18 27 39 44 0 23 4 34 115 90 24 28 18 29 33 66 82 76 81 78 62 59 41 14 4 2 1 2 3 11 12 2 0 0 0 0 16 9 15 41 53 32 114 49 37 62 58 35 23 8 6 18 44 57
0 0 54 28 13 2 0 0 2 0 0 0 1 0 5 2 0 1 1 10 5 37 19 10 7 9 1 1 1 1 31 17 3 20 28 5 1 20 76 146 53 92 80 76 14 26 15 1 8 12 24 75 86 61 42 21 2 7 21 9 3 3 13 19 2 0 0 0 0 16 16 5 12 12 38 17 8 25 7 22 12 7 1 7 14 52
0 0 18 0 11 0 0 1 2 1 0 0 0 0 3 8 5 9 0 0 0 1 1 2 22 26 1 1 0 0 13 6 2 2 4 4 0 4 63 42 18 0 4 2 1 2 0 8 3 1 1 23 20 4 1 2 2 9 10 5 1 7 18 12 13 10 5 7 4 1 16 16 2 5 28 22 4 1 14 15 29 6 10 12 0 19
0 0 0 0 0 0 16 0 1 0 0 0 0 0 1 7 7 1 0 0 0 0 0 0 1 0 2 2 0 0 25 36 5 2 4 1 0 0 19 39 14 3 1 24 28 23 18 36 19 1 2 6 6 7 8 6 2 0 3 5 3 0 4 12 7 6 5 9 7 10 9 7 34 7 8 4 23 44 33 39 32 21 12 3 0 0
0 0 0 1 4 6 6 1 0 0 0 0 0 0 2 10 3 0 0 0 0 0 0 0 0 0 1 1 2 1 2 0 0 10 2 0 0 0 0 3 3 6 14 7 0 0 24 64 54 54 41 6 3 3 4 6 6 2 2 4 0 0 0 4 2 6 7 6 6 4 5 4 8 6 1 12 17 26 25 23 32 29 14 4 4 8
0 0 0 0 0 0 0 7 1 0 0 0 0 0 3 2 0 2 0 0 1 0 0 1 0 0 0 0 2 3 1 5 6 11 8 5 3 4 9 9 7 10 11 4 1 1 0 0 7 36 38 16 4 2 0 1 0 2 5 3 0 0 0 1 3 4 4 4 7 5 6 7 6 9 5 4 5 8 16 20 16 8 10 5 5 8
0 0 0 0 0 0 0 0 0 0 0 0 0 0 0 0 0 0 0 0 0 0 0 0 0 1 1 2 1 4 1 4 10 5 1 16 4 5 11 20 18 16 11 6 5 0 1 0 0 0 0 0 0 0 0 0 0 1 6 0 0 0 0 5 3 5 6 8 5 1 12 10 12 10 6 4 2 6 9 12 14 10 7 14 13 7
0 0 0 0 0 0 0 0 0 0 0 0 0 0 0 0 0 2 0 0 1 1 0 1 0 2 2 3 4 8 7 5 8 9 12 15 10 9 14 20 14 7 5 6 6 0 0 0 0 0 1 2 5 5 3 0 1 1 3 0 0 2 0 0 0 3 3 1 5 4 12 14 13 9 6 7 8 8 11 4 6 2 4 5 4 2
0 0 0 0 0 0 4 1 1 0 0 0 0 0 1 1 5 4 6 4 0 0 0 0 1 1 0 2 8 10 15 15 15 10 12 10 9 8 10 10 1 0 0 0 1 2 0 0 0 0 0 0 2 6 4 2 5 7 2 1 3 2 2 5 10 12 10 4 3 10 9 7 2 2 6 7 5 6 5 2 1 1 2 2 1 1
0 0 0 0 0 2 1 2 2 1 0 0 1 2 2 0 0 1 1 0 1 5 3 0 1 0 2 5 11 8 8 10 15 16 16 15 6 8 2 0 2 4 4 2 3 2 2 1 0 0 0 0 1 1 4 8 10 12 3 0 0 0 4 7 12 13 15 11 4 2 4 8 9 9 2 5 6 6 0 4 1 0 0 0 0 1
0 0 0 0 11 0 10 2 0 0 3 0 2 1 1 0 0 0 0 2 6 8 7 4 4 3 3 6 6 6 9 10 6 4 6 14 14 8 0 1 3 2 1 0 0 0 2 4 5 3 0 0 2 0 0 2 4 4 0 0 0 0 3 5 5 7 7 0 1 1 0 0 1 3 5 6 3 5 6 3 1 0 0 0 0 2
0 0 0 1 3 0 1 0 1 5 6 0 2 7 4 0 0 0 0 0 0 2 0 0 0 2 0 3 5 6 6 4 3 2 1 1 0 0 0 0 0 0 0 0 0 0 0 0 0 0 0 0 0 2 2 0 1 1 1 1 0 0 2 4 3 2 1 3 1 1 1 2 0 0 1 4 5 6 4 3 1 0 1 6 9 11
0 0 0 0 6 2 1 1 2 5 4 6 4 3 0 1 3 2 0 0 1 0 2 0 5 0 3 4 2 0 0 0 0 0 0 0 0 0 0 0 0 1 0 0 0 0 0 0 0 0 0 0 0 0 0 0 0 0 0 0 0 0 0 0 3 1 0 0 0 1 0 0 0 0 0 0 0 0 0 0 0 0 1 2 6 6
0 0 0 0 0 0 1 0 2 2 0 1 2 2 1 1 2 3 1 1 1 1 2 0 0 0 1 0 0 0 0 0 0 0 2 4 2 0 0 0 0 0 0 0 0 0 0 0 0 0 0 0 0 0 0 0 0 0 0 0 0 0 0 0 0 0 0 0 0 0 0 0 0 0 0 0 0 0 0 0 0 0 0 0 0 0
0 0 0 0 0 0 0 1 5 4 3 0 2 1 1 0 0 0 0 0 1 1 1 0 0 0 0 0 2 0 0 0 0 0 0 0 0 0 0 0 0 0 0 0 0 0 0 0 0 0 0 0 1 0 0 0 0 0 0 0 0 0 0 0 0 0 0 0 0 0 0 0 0 0 0 0 0 0 0 0 0 0 0 0 0 0
Wind_Speed
nan nan nan nan nan nan nan nan nan nan nan nan nan nan nan nan nan nan nan nan nan nan nan nan nan nan nan nan nan nan 21 18 17 22 23 23 24 26 28 28 28 28 28 26 27 25 23 21 22 23 22 24 25 25 26 26 24 25 23 19 20 21 23 25 25 22 21 21 19 16 12 11 12 10 11 12 14 17 20 20 20 21 19 19 19 19
nan nan nan nan nan nan nan nan nan nan nan nan nan nan nan nan nan nan nan nan nan nan nan nan nan nan nan nan nan nan 21 24 18 18 20 23 25 27 31 31 28 29 27 28 27 24 21 20 24 26 26 27 28 24 23 23 23 20 16 14 16 19 18 21 25 24 21 21 21 20 19 18 14 12 11 10 11 13 16 17 18 19 19 17 16 17
nan nan nan nan nan nan nan nan nan nan nan nan nan nan nan nan nan nan nan nan nan nan nan nan nan nan nan nan nan nan 20 21 23 24 24 25 23 28 31 31 30 31 31 27 27 27 24 22 23 25 25 25 28 26 21 19 19 15 12 11 13 16 18 19 24 26 23 20 18 18 19 19 19 16 13 9 8 8 9 10 12 13 13 13 14 14
nan nan nan nan nan nan nan nan nan nan nan nan nan nan nan nan nan nan nan nan nan nan nan nan nan nan nan nan nan nan nan 19 20 24 26 25 27 29 33 34 34 34 33 33 31 30 27 23 21 22 23 24 26 22 17 17 17 14 13 13 13 15 19 22 25 27 23 19 18 23 20 14 16 18 16 11 8 7 7 5 6 7 9 9 11 11
nan nan nan nan nan nan nan nan nan nan nan nan nan nan nan nan nan nan nan nan nan nan nan nan nan nan nan nan nan nan nan 18 19 19 19 18 25 31 32 31 35 36 35 34 32 29 30 27 21 19 20 22 22 19 16 18 18 16 17 16 16 17 20 23 26 26 25 22 22 24 23 18 17 19 19 14 9 7 6 6 4 6 5 6 9 10
nan nan nan nan nan nan nan nan nan nan nan nan nan nan nan nan nan nan nan nan nan nan nan nan nan nan nan nan nan nan nan nan 16 21 19 18 20 26 30 30 27 28 31 38 38 35 31 26 19 15 16 17 17 15 13 17 19 18 18 18 17 18 18 22 25 26 26 24 25 25 23 21 17 18 19 15 12 9 7 5 7 8 7 9 10 10
nan nan nan nan nan nan nan nan nan nan nan nan nan nan nan nan nan nan nan nan nan nan nan nan nan nan nan nan nan nan nan nan nan 16 15 16 19 20 21 25 26 28 27 24 24 25 25 20 15 12 11 10 12 13 16 16 18 19 18 19 18 17 18 21 25 28 27 25 25 24 21 18 15 14 16 19 18 13 11 12 9 10 10 11 10 11
nan nan nan nan nan nan nan nan nan nan nan nan nan nan nan nan nan nan nan nan nan nan nan nan nan nan nan nan nan nan nan nan nan nan 13 15 17 17 17 20 22 22 22 25 23 22 21 19 12 10 13 13 19 25 20 17 16 18 17 18 20 17 16 20 27 29 28 27 24 24 23 19 14 13 15 17 19 18 15 12 10 10 10 10 10 12
nan nan nan nan nan nan nan nan nan nan nan nan nan nan nan nan nan nan nan nan nan nan nan nan nan nan nan nan nan nan nan nan 18 16 nan 9 17 23 24 24 24 23 24 23 22 23 25 22 20 22 23 25 27 27 25 20 19 17 16 18 20 18 17 21 28 31 30 28 26 27 27 20 15 18 20 19 17 17 17 15 13 11 11 12 13 14
nan nan nan nan nan nan nan nan nan nan nan nan nan nan nan nan nan nan nan nan nan nan nan nan nan nan nan 21 24 24 nan nan 20 17 17 13 nan 22 25 25 25 27 29 29 29 27 25 23 22 20 22 24 23 24 27 29 24 21 20 19 20 21 20 23 27 32 34 33 30 26 23 17 12 15 18 17 13 14 16 15 14 14 13 12 15 15
nan nan nan nan nan nan nan nan nan nan nan nan nan nan nan nan nan nan nan nan nan nan nan nan nan nan nan 25 22 25 23 22 23 20 22 28 32 31 30 30 30 32 31 29 28 28 29 30 29 26 24 22 22 25 28 29 29 28 24 20 22 24 26 26 28 32 38 35 25 16 17 18 13 8 11 14 13 13 15 15 15 13 13 12 12 13
nan nan nan nan nan nan nan nan nan nan nan nan nan nan nan nan nan nan nan nan nan nan nan nan nan nan nan 24 24 23 24 31 27 25 28 32 34 32 31 31 33 35 35 34 33 32 32 32 29 25 23 23 24 27 29 27 28 28 28 30 31 31 32 27 28 33 34 28 21 14 15 17 15 12 10 11 9 10 11 13 13 12 12 12 11 12
nan nan nan nan nan nan nan nan nan nan nan nan nan nan nan nan nan nan nan nan nan nan nan nan nan nan nan 25 25 24 26 31 33 31 29 31 34 34 36 35 35 36 38 37 36 36 36 34 29 28 25 23 22 27 31 28 28 29 30 36 33 29 23 21 22 33 31 19 17 14 15 16 15 13 12 11 8 8 9 10 11 10 9 11 11 10
nan nan nan nan nan nan nan nan nan nan nan nan nan nan nan nan nan nan nan nan nan nan nan nan nan nan 25 29 27 27 28 31 32 30 30 31 33 35 34 33 33 35 36 36 37 37 35 31 31 30 28 22 19 26 33 29 29 28 27 33 35 21 19 24 27 32 24 16 15 17 16 16 16 13 12 14 12 9 8 8 8 8 8 9 9 10
nan nan nan nan nan nan nan nan nan nan nan nan nan nan nan nan nan nan nan nan nan nan nan nan nan nan 29 25 18 23 28 31 31 30 29 32 32 32 33 32 32 33 32 33 33 32 31 29 27 27 26 23 22 27 30 29 30 30 30 31 30 25 20 27 36 29 19 19 22 18 17 15 13 12 13 14 14 12 9 7 5 6 7 8 10 11
nan nan nan nan nan nan nan nan nan nan nan nan nan nan nan nan nan nan nan nan nan nan nan nan nan 26 28 24 23 24 29 30 32 33 35 36 34 35 34 33 33 32 31 29 28 28 27 27 26 25 25 26 26 29 32 33 33 35 37 37 35 28 29 32 35 29 24 19 18 18 18 15 14 13 13 15 16 15 12 8 7 5 6 7 10 12
nan nan nan nan nan nan nan nan nan nan nan nan nan nan nan nan nan nan nan nan nan nan nan 22 26 26 25 27 25 27 31 29 31 32 34 34 34 35 33 33 34 33 33 31 30 29 27 26 26 24 24 25 29 34 35 34 33 35 37 40 40 39 38 37 27 20 19 20 16 17 18 17 16 12 9 11 15 18 18 13 11 9 8 10 11 12
nan nan nan nan nan nan nan nan nan nan nan nan nan nan nan nan nan nan nan nan nan nan nan nan 23 22 26 22 22 26 29 31 34 33 33 32 32 33 30 30 31 33 33 33 33 32 30 27 27 26 25 26 27 29 36 36 33 35 39 42 44 40 37 34 22 17 23 24 18 17 18 17 16 12 14 17 20 20 19 15 13 13 12 12 12 14
nan nan nan nan nan nan nan nan nan nan nan nan nan nan nan nan nan nan nan nan nan nan nan nan 25 25 25 23 23 24 27 31 32 32 32 32 31 30 29 31 33 34 34 34 32 31 28 27 25 24 24 26 27 29 30 30 28 31 33 32 35 34 35 33 25 23 25 25 21 16 15 15 16 17 18 17 15 14 14 13 13 11 12 15 15 17
nan nan nan nan nan nan nan nan nan nan nan nan nan nan nan nan nan nan nan nan nan nan nan nan nan nan 24 23 23 25 27 30 32 33 33 32 30 27 28 31 33 34 34 33 31 29 26 24 23 23 24 26 27 27 27 25 25 22 23 23 30 33 36 33 27 26 28 23 18 14 14 15 17 16 15 13 11 13 15 19 16 11 14 14 16 17
nan nan nan nan nan nan nan nan nan nan nan nan nan nan nan nan nan nan nan nan nan nan nan nan nan nan 23 22 24 24 26 29 30 32 29 30 31 30 31 33 34 34 33 32 29 27 26 23 23 23 22 22 22 22 21 22 21 19 20 14 24 24 22 25 25 24 23 18 12 11 11 12 13 12 12 12 13 14 14 16 12 7 15 17 18 18
nan nan nan nan nan nan nan nan nan nan nan nan nan nan nan nan nan nan nan nan nan nan nan nan nan nan 22 25 24 25 26 26 27 29 27 30 30 30 32 35 33 32 30 28 27 26 26 25 23 22 21 21 20 19 18 18 17 17 19 23 10 15 11 15 17 16 14 9 9 9 11 12 13 13 14 14 12 14 16 18 13 12 19 19 18 19
nan nan nan nan nan nan nan nan nan nan nan nan nan nan nan nan nan nan nan nan nan nan nan nan 29 nan 23 24 24 25 25 24 24 27 27 26 27 27 27 30 31 30 29 27 27 25 25 24 23 21 20 20 20 19 18 16 16 14 15 16 19 16 13 10 10 12 13 10 8 8 10 13 15 16 17 15 12 14 16 20 19 18 20 19 19 19
32 nan nan nan nan nan nan nan nan nan nan nan nan nan nan nan nan nan nan nan nan nan nan nan nan nan 24 25 26 27 25 24 23 24 27 26 25 24 25 27 30 29 28 27 27 25 24 23 21 20 18 18 17 17 18 16 15 14 11 9 12 16 12 8 6 8 10 11 10 9 10 11 14 17 18 16 14 15 15 19 20 20 19 18 19 19
nan nan nan nan nan nan nan nan nan nan nan nan nan nan nan nan nan nan nan nan nan nan nan nan nan 24 25 26 26 29 28 27 27 27 27 28 24 23 24 27 29 30 28 27 26 24 24 24 22 20 17 17 18 18 18 17 15 13 11 9 7 5 6 6 6 5 6 6 8 10 10 9 12 15 17 16 13 15 17 19 20 19 19 18 18 19
nan nan nan nan nan nan nan nan nan nan nan nan nan nan nan nan nan nan nan nan nan nan nan nan nan 26 30 29 31 30 30 29 27 29 28 26 25 24 26 28 30 nan nan 26 26 25 24 21 20 20 18 18 20 20 19 17 15 12 10 6 4 4 3 6 7 5 6 6 5 7 9 9 11 13 16 16 14 16 18 20 19 18 18 18 19 19
nan nan nan nan nan nan nan nan nan 30 nan 36 nan nan nan nan nan nan nan nan nan nan nan nan 31 34 32 32 31 29 29 29 28 27 25 24 25 26 27 29 nan nan 27 26 23 23 23 24 nan 20 19 18 19 19 18 16 13 11 9 5 2 3 5 6 7 6 4 4 8 8 8 9 13 14 14 14 18 17 21 21 21 20 19 19 20 nan
35 37 nan nan nan nan nan 37 nan 35 36 34 nan nan nan nan nan nan nan nan nan nan nan nan 32 37 34 35 32 33 31 30 28 26 25 24 23 23 25 28 31 29 nan 22 22 23 22 nan 21 20 19 18 nan 17 16 14 13 11 10 8 4 3 4 2 4 5 5 9 13 nan 13 13 16 15 14 16 18 20 23 24 23 22 21 21 21 nan
34 35 34 36 38 nan 36 nan nan nan nan 39 40 37 nan 38 nan 39 nan nan nan nan nan 29 35 35 34 33 31 31 31 nan nan nan 29 27 25 nan 25 29 30 28 26 25 23 19 17 18 nan nan 17 nan nan nan nan nan nan nan nan nan nan 6 5 3 nan nan 10 12 nan nan 17 nan 16 nan 21 19 21 23 23 22 23 24 23 22 22 nan
40 38 35 nan 37 38 35 nan nan nan nan nan 46 41 38 41 40 39 nan nan nan nan 36 38 40 38 33 35 34 30 26 28 nan nan nan 30 28 26 nan nan nan 27 26 24 20 17 15 16 15 15 16 nan nan nan nan nan nan nan 12 11 9 8 nan 6 nan nan nan nan nan 17 19 22 19 22 21 23 24 22 22 20 22 nan nan 21 21 nan
nan 35 nan nan 38 nan nan nan nan nan nan nan nan 45 43 38 42 42 nan nan nan 43 39 40 41 37 34 32 28 23 20 nan nan nan nan 29 29 nan nan nan 27 26 24 23 21 18 15 16 17 16 16 nan nan nan nan nan nan nan nan nan nan nan nan nan nan nan nan 15 14 14 15 19 22 24 24 24 24 nan nan nan nan nan 23 24 nan nan
nan 37 nan nan nan nan nan nan nan nan nan nan nan nan nan 41 41 39 nan nan nan 35 38 41 nan nan nan nan nan 25 nan nan nan nan 26 nan nan nan 26 nan 26 26 25 24 22 19 16 17 18 18 16 nan nan nan nan nan nan nan nan nan nan nan nan nan nan nan nan 13 12 14 13 14 17 22 22 22 22 nan nan nan 23 nan 25 nan nan nan
nan nan nan nan nan nan nan nan nan nan nan nan nan nan nan nan nan 38 nan nan 39 nan nan nan nan nan nan nan nan nan nan nan nan nan 25 nan 27 nan nan 25 25 nan nan 24 22 19 17 15 16 17 nan nan nan nan nan nan nan nan nan nan nan nan 12 14 nan nan nan nan nan 10 13 14 13 16 19 19 22 nan nan nan nan 27 28 nan nan nan
nan nan nan nan nan nan nan nan nan nan nan nan nan nan nan nan nan 44 nan nan nan nan nan nan nan nan nan nan nan nan nan nan nan nan nan nan nan nan 29 27 25 24 nan nan nan 20 17 15 16 nan nan nan nan nan nan nan nan nan nan nan nan nan nan 15 16 18 19 18 nan 12 13 14 16 17 18 19 21 nan nan nan nan nan nan nan nan nan
nan nan nan nan nan nan nan nan nan nan nan nan nan nan nan nan nan nan nan nan 43 nan nan nan nan nan nan nan nan nan nan nan nan nan nan nan nan nan nan 30 nan nan nan nan nan nan 20 17 18 nan nan nan nan nan nan nan nan nan nan nan nan nan nan nan nan nan nan 17 nan 15 nan nan 17 20 20 21 22 nan nan nan nan nan nan nan nan nan
nan nan nan nan nan nan nan nan nan nan nan nan nan nan nan nan nan nan nan 42 38 35 35 36 35 37 37 nan nan nan nan nan nan nan nan nan nan nan nan nan 29 nan nan nan nan nan 21 20 20 nan nan nan nan nan nan nan nan nan nan nan nan nan nan nan nan nan nan nan nan nan nan nan nan 19 nan 23 nan nan nan nan nan nan nan nan nan nan
nan nan nan nan nan nan nan nan nan nan nan nan nan nan nan nan nan nan nan 36 36 33 nan nan nan nan nan nan nan nan nan nan nan nan nan nan nan nan nan nan 30 nan nan nan nan nan nan nan nan nan nan nan nan nan nan nan nan nan nan nan nan nan nan nan nan nan nan nan nan nan nan nan nan nan 19 nan nan nan nan nan nan nan nan nan nan nan
nan nan nan nan nan nan nan nan nan nan nan nan nan nan nan nan nan nan nan nan nan nan nan nan nan nan nan nan nan nan nan nan nan nan nan nan nan nan nan 32 nan nan nan nan nan nan nan nan nan nan nan nan nan nan nan nan nan nan nan nan nan nan nan nan nan nan nan nan nan nan nan nan nan nan nan nan nan nan nan nan nan nan nan nan nan nan
nan nan nan nan nan nan nan nan nan nan nan nan nan nan nan nan nan nan nan nan nan nan nan nan nan nan nan nan nan nan nan nan nan nan nan nan nan nan nan nan nan nan nan nan nan nan nan nan nan nan nan nan nan nan nan nan nan nan nan nan nan nan nan nan nan nan nan nan nan nan nan nan nan nan nan nan nan nan nan nan nan nan nan nan nan nan
nan nan nan nan nan nan nan nan nan nan nan nan nan nan nan nan nan nan nan nan nan nan nan nan nan nan nan nan nan nan nan nan nan nan nan nan nan nan nan nan nan nan nan nan nan nan nan nan nan nan nan nan nan nan nan nan nan nan nan nan nan nan nan nan nan nan nan nan nan nan nan nan nan nan nan nan nan nan nan nan nan nan nan nan nan nan
nan nan nan nan nan nan nan nan nan nan nan nan nan nan nan nan nan nan nan nan nan nan nan nan nan nan nan nan nan nan nan nan nan nan nan nan nan nan nan nan nan nan nan nan nan nan nan nan nan nan nan nan nan nan nan nan nan nan nan nan nan nan nan nan nan nan nan nan nan nan nan nan nan nan nan nan nan nan nan nan nan nan nan nan nan nan
nan nan nan nan nan nan nan nan nan nan nan nan nan nan nan nan nan nan nan nan nan nan nan nan nan nan nan nan nan nan nan nan nan nan nan nan nan nan nan nan nan nan nan nan nan nan nan nan nan nan nan nan nan nan nan nan nan nan nan nan nan nan nan nan nan nan nan nan nan nan nan nan nan nan nan nan nan nan nan nan nan nan nan nan nan nan
nan nan nan nan nan nan nan nan nan nan nan nan nan nan nan nan nan nan nan nan nan nan nan nan nan nan nan nan nan nan nan nan nan nan nan nan nan nan nan nan nan nan nan nan nan nan nan nan nan nan nan nan nan nan nan nan nan nan nan nan nan nan nan nan nan nan nan nan nan nan nan nan nan nan nan nan nan nan nan nan nan nan nan nan nan nan
nan nan nan nan nan nan nan nan nan nan nan nan nan nan nan nan nan nan nan nan nan nan nan nan nan nan nan nan nan nan nan nan nan nan nan nan nan nan nan nan nan nan nan nan nan nan nan nan nan nan nan nan nan nan nan nan nan nan nan nan nan nan nan nan nan nan nan nan nan nan nan nan nan nan nan nan nan nan nan nan nan nan nan nan nan nan
nan nan nan nan nan nan nan nan nan nan nan nan nan nan nan nan nan nan nan nan nan nan nan nan nan nan nan nan nan nan nan nan nan nan nan nan nan nan nan nan nan nan nan nan nan nan nan nan nan nan nan nan nan nan nan nan nan nan nan nan nan nan nan nan nan nan nan nan nan nan nan nan nan nan nan nan nan nan nan nan nan nan nan nan nan nan
nan nan nan nan nan nan nan nan nan nan nan nan nan nan nan nan nan nan nan nan nan nan nan nan nan nan nan nan nan nan nan nan nan nan nan nan nan nan nan nan nan nan nan nan nan nan nan nan nan nan nan nan nan nan nan nan nan nan nan nan nan nan nan nan nan nan nan nan nan nan nan nan nan nan nan nan nan nan nan nan nan nan nan nan nan nan
nan nan nan nan nan nan nan nan nan nan nan nan nan nan nan nan nan nan nan nan nan nan nan nan nan nan nan nan nan nan nan nan nan nan nan nan nan nan nan nan nan nan nan nan nan nan nan nan nan nan nan nan nan nan nan nan nan nan nan nan nan nan nan nan nan nan nan nan nan nan nan nan nan nan nan nan nan nan nan nan nan nan nan nan nan nan
nan nan nan nan nan nan nan nan nan nan nan nan nan nan nan nan nan nan nan nan nan nan nan nan nan nan nan nan nan nan nan nan nan nan nan nan nan nan nan nan nan nan nan nan nan nan nan nan nan nan nan nan nan nan nan nan nan nan nan nan nan nan nan nan nan nan nan nan nan nan nan nan nan nan nan nan nan nan nan nan nan nan nan nan nan nan
nan nan nan nan nan nan nan nan nan nan nan nan nan nan nan nan nan nan nan nan nan nan nan nan nan nan nan nan nan nan nan nan nan nan nan nan nan nan nan nan nan nan nan nan nan nan nan nan nan nan nan nan nan nan nan nan nan nan nan nan nan nan nan nan nan nan nan nan nan nan nan nan nan nan nan nan nan nan nan nan nan nan nan nan nan nan
nan nan nan nan nan nan nan nan nan nan nan nan nan nan nan nan nan nan nan nan nan nan nan nan nan nan nan nan nan nan nan nan nan nan nan nan nan nan nan nan nan nan nan nan nan nan nan nan nan nan nan nan nan nan nan nan nan nan nan nan nan nan nan nan nan nan nan nan nan nan nan nan nan nan nan nan nan nan nan nan nan nan nan nan nan nan
nan nan nan nan nan nan nan nan nan nan nan nan nan nan nan nan nan nan nan nan nan nan nan nan nan nan nan nan nan nan nan nan nan nan nan nan nan nan nan nan nan nan nan nan nan nan nan nan nan nan nan nan nan nan nan nan nan nan nan nan nan nan nan nan nan nan nan nan nan nan nan nan nan nan nan nan nan nan nan nan nan nan nan nan nan nan
Wind_Direction
nan nan nan nan nan nan nan nan nan nan nan nan nan nan nan nan nan nan nan nan nan nan nan nan nan nan nan nan nan nan 270 247 271 295 295 295 294 290 289 292 292 293 299 300 302 302 302 299 287 282 285 286 289 297 306 315 319 318 315 311 321 312 292 282 281 273 271 269 270 259 259 252 255 266 271 279 269 255 242 240 240 245 250 255 256 256
nan nan nan nan nan nan nan nan nan nan nan nan nan nan nan nan nan nan nan nan nan nan nan nan nan nan nan nan nan nan 276 286 289 282 286 294 294 292 291 292 293 291 287 295 299 303 301 291 287 286 287 291 295 298 311 322 321 315 311 316 320 314 300 291 286 284 277 268 270 276 279 267 265 272 278 286 276 251 241 244 246 249 253 257 256 255
nan nan nan nan nan nan nan nan nan nan nan nan nan nan nan nan nan nan nan nan nan nan nan nan nan nan nan nan nan nan 291 298 304 308 306 300 294 289 290 292 293 295 298 299 303 306 307 305 296 289 290 295 297 303 316 313 303 301 297 301 315 314 305 297 290 284 281 276 271 265 264 267 256 252 257 261 270 254 242 243 248 251 253 253 253 254
nan nan nan nan nan nan nan nan nan nan nan nan nan nan nan nan nan nan nan nan nan nan nan nan nan nan nan nan nan nan nan 275 304 309 307 304 302 298 301 302 302 304 305 309 314 317 314 311 299 285 289 292 291 302 311 304 303 290 279 282 296 304 305 299 290 285 288 292 270 249 252 253 248 252 259 258 252 241 227 229 235 244 235 250 251 248
nan nan nan nan nan nan nan nan nan nan nan nan nan nan nan nan nan nan nan nan nan nan nan nan nan nan nan nan nan nan nan 271 289 283 280 291 306 305 294 296 307 311 310 310 311 313 316 316 312 299 289 289 297 309 316 304 297 281 276 281 290 299 307 297 289 282 282 282 264 251 247 253 244 245 254 256 246 239 218 219 218 244 235 234 248 241
nan nan nan nan nan nan nan nan nan nan nan nan nan nan nan nan nan nan nan nan nan nan nan nan nan nan nan nan nan nan nan nan 271 289 299 302 285 281 303 314 305 303 309 317 320 325 327 317 298 285 279 292 301 309 305 289 286 277 271 270 279 292 299 295 288 280 279 278 272 265 263 266 263 256 264 274 273 260 251 234 227 237 240 231 234 239
nan nan nan nan nan nan nan nan nan nan nan nan nan nan nan nan nan nan nan nan nan nan nan nan nan nan nan nan nan nan nan nan nan 270 269 282 281 289 308 316 319 312 305 297 303 322 332 321 298 277 279 292 299 272 259 270 281 272 265 272 278 286 292 292 285 279 276 276 271 270 267 266 268 258 249 252 253 253 238 230 226 230 227 224 233 233
nan nan nan nan nan nan nan nan nan nan nan nan nan nan nan nan nan nan nan nan nan nan nan nan nan nan nan nan nan nan nan nan nan nan 298 296 282 280 282 284 292 303 303 307 315 324 321 312 289 252 233 232 228 228 230 239 252 269 271 277 280 275 279 282 280 276 274 278 273 271 266 260 247 247 245 248 249 247 243 235 228 225 224 221 226 226
nan nan nan nan nan nan nan nan nan nan nan nan nan nan nan nan nan nan nan nan nan nan nan nan nan nan nan nan nan nan nan nan 245 252 nan 299 310 297 285 286 291 303 292 288 289 284 275 265 243 228 223 222 222 221 222 224 221 234 252 264 268 268 266 271 278 273 271 269 267 258 253 250 232 225 231 234 242 246 244 238 230 230 221 217 226 225
nan nan nan nan nan nan nan nan nan nan nan nan nan nan nan nan nan nan nan nan nan nan nan nan nan nan nan 242 233 240 nan nan 258 241 224 234 nan 280 286 281 275 272 272 274 273 281 287 285 275 266 254 245 247 245 235 226 223 221 222 241 248 250 253 260 266 267 265 257 253 257 257 268 246 219 225 231 237 242 240 238 233 228 222 218 230 235
nan nan nan nan nan nan nan nan nan nan nan nan nan nan nan nan nan nan nan nan nan nan nan nan nan nan nan 253 242 246 253 263 255 243 229 237 245 246 247 253 260 268 275 283 285 285 287 285 285 283 277 270 264 263 260 256 243 228 220 236 244 239 245 252 252 259 255 255 269 276 277 278 272 245 228 234 237 241 241 237 231 234 225 217 225 232
nan nan nan nan nan nan nan nan nan nan nan nan nan nan nan nan nan nan nan nan nan nan nan nan nan nan nan 257 245 246 245 248 248 239 232 236 240 244 247 252 260 268 273 275 276 280 284 283 287 287 283 280 276 270 268 272 272 268 254 234 225 231 229 234 257 253 254 262 272 285 287 287 282 282 248 228 238 252 253 247 241 237 230 219 213 212
nan nan nan nan nan nan nan nan nan nan nan nan nan nan nan nan nan nan nan nan nan nan nan nan nan nan nan 256 255 241 236 239 242 245 242 239 239 242 246 251 258 263 265 266 269 272 273 276 282 286 284 280 269 260 257 258 259 262 266 267 256 235 249 254 253 260 256 266 282 288 281 282 284 282 278 269 253 252 259 259 255 253 245 228 220 210
nan nan nan nan nan nan nan nan nan nan nan nan nan nan nan nan nan nan nan nan nan nan nan nan nan nan 252 253 240 247 243 243 246 247 247 245 244 246 249 254 257 260 264 266 267 269 273 279 283 288 290 291 282 270 267 263 262 255 254 261 273 270 267 261 258 257 268 279 282 274 273 278 281 288 281 275 278 265 255 264 274 271 258 247 235 225
nan nan nan nan nan nan nan nan nan nan nan nan nan nan nan nan nan nan nan nan nan nan nan nan nan nan 257 256 256 252 251 249 249 250 250 251 253 254 255 256 258 258 258 263 267 270 276 282 284 289 291 283 273 266 272 269 264 259 255 259 259 257 256 255 258 262 265 259 247 259 267 272 277 287 265 257 261 263 255 233 248 254 250 251 238 233
nan nan nan nan nan nan nan nan nan nan nan nan nan nan nan nan nan nan nan nan nan nan nan nan nan 238 250 259 263 257 253 249 249 248 249 251 256 259 260 259 258 259 260 262 267 270 273 274 275 278 280 282 279 274 279 278 273 261 253 250 250 239 232 247 258 248 242 245 258 271 277 272 267 261 251 249 248 242 234 221 216 220 235 239 238 230
nan nan nan nan nan nan nan nan nan nan nan nan nan nan nan nan nan nan nan nan nan nan nan 227 228 233 238 246 248 244 250 249 252 255 257 258 260 262 265 265 266 267 267 269 269 269 268 269 269 272 276 280 284 289 290 286 278 265 253 253 250 243 247 253 255 264 262 258 266 266 267 271 273 277 268 276 260 237 220 210 202 209 209 224 231 237
nan nan nan nan nan nan nan nan nan nan nan nan nan nan nan nan nan nan nan nan nan nan nan nan 252 250 250 251 242 243 250 252 255 258 262 262 263 266 266 267 268 268 269 272 273 273 271 269 267 269 272 274 277 285 286 284 283 274 266 264 266 269 270 272 276 264 247 250 258 261 268 276 282 280 264 275 276 252 223 202 210 210 218 220 226 230
nan nan nan nan nan nan nan nan nan nan nan nan nan nan nan nan nan nan nan nan nan nan nan nan 234 239 249 249 245 246 256 260 259 262 262 260 260 262 264 263 266 268 269 272 275 274 268 265 265 265 267 270 273 275 276 278 281 284 279 272 270 265 269 274 267 254 251 243 244 260 275 275 269 264 270 274 267 248 247 224 211 233 227 226 227 232
nan nan nan nan nan nan nan nan nan nan nan nan nan nan nan nan nan nan nan nan nan nan nan nan nan nan 244 250 253 257 258 259 263 261 261 261 259 257 259 263 264 264 267 270 272 268 262 260 259 260 265 270 275 277 277 275 273 273 269 278 284 273 257 262 266 261 262 256 245 258 270 261 263 269 277 281 258 230 223 226 201 229 252 244 239 241
nan nan nan nan nan nan nan nan nan nan nan nan nan nan nan nan nan nan nan nan nan nan nan nan nan nan 247 252 257 258 256 259 261 262 262 263 261 260 259 262 262 262 264 266 266 260 255 254 255 259 264 267 272 275 277 276 275 274 248 227 306 314 274 268 278 267 256 250 233 230 262 270 272 272 269 268 250 240 243 235 212 228 266 251 249 248
nan nan nan nan nan nan nan nan nan nan nan nan nan nan nan nan nan nan nan nan nan nan nan nan nan nan 246 249 257 257 260 266 269 270 268 265 264 264 261 258 260 263 262 261 259 256 255 254 253 257 263 266 273 277 278 280 282 280 257 234 233 333 325 283 283 271 252 239 231 234 259 271 269 273 273 280 271 253 245 247 249 265 265 257 254 251
nan nan nan nan nan nan nan nan nan nan nan nan nan nan nan nan nan nan nan nan nan nan nan nan 251 nan 250 256 259 262 264 266 270 274 272 266 265 270 267 260 257 260 263 259 257 255 255 256 259 261 258 256 261 270 273 281 280 287 286 249 235 248 275 284 286 271 258 256 264 269 265 261 263 271 280 285 273 267 255 252 257 265 263 255 251 246
206 nan nan nan nan nan nan nan nan nan nan nan nan nan nan nan nan nan nan nan nan nan nan nan nan nan 252 262 263 267 265 264 262 266 274 273 271 269 266 262 261 261 260 258 260 259 257 260 259 257 255 257 264 268 266 271 276 287 303 293 261 260 277 297 287 283 280 270 281 296 293 273 265 273 281 282 276 278 259 259 258 255 258 254 249 250
nan nan nan nan nan nan nan nan nan nan nan nan nan nan nan nan nan nan nan nan nan nan nan nan nan 244 256 260 261 268 267 265 264 260 267 274 270 266 264 264 265 264 261 257 256 256 255 255 256 259 261 261 263 266 264 262 274 286 301 313 308 321 319 318 314 320 321 302 293 296 303 289 273 278 276 272 273 273 256 253 252 246 252 250 248 250
nan nan nan nan nan nan nan nan nan nan nan nan nan nan nan nan nan nan nan nan nan nan nan nan nan 239 257 256 259 263 267 264 262 264 264 263 260 261 263 264 264 nan nan 258 255 254 255 260 264 263 262 262 258 260 261 261 267 276 287 297 353 350 336 354 346 335 340 338 302 287 302 297 286 281 269 266 264 258 250 256 254 247 241 250 253 249
nan nan nan nan nan nan nan nan nan 212 nan 215 nan nan nan nan nan nan nan nan nan nan nan nan 250 262 262 263 263 263 264 265 263 265 270 266 256 255 256 257 nan nan 260 257 257 259 258 255 nan 258 257 257 257 254 256 259 259 264 260 251 289 357 1 12 356 341 319 293 268 257 271 271 270 254 239 253 264 256 246 249 251 247 242 244 251 nan
214 216 nan nan nan nan nan 215 nan 222 224 215 nan nan nan nan nan nan nan nan nan nan nan nan 255 261 265 264 264 266 262 258 257 258 263 262 256 253 253 253 256 258 nan 259 254 249 252 nan 254 256 257 253 nan 247 245 248 251 250 245 237 240 310 313 332 11 334 278 253 241 nan 246 250 250 244 235 221 235 246 250 247 244 241 241 243 248 nan
221 220 213 223 222 nan 226 nan nan nan nan 224 222 218 nan 216 nan 225 nan nan nan nan nan 258 260 258 258 260 260 261 264 nan nan nan 255 256 253 nan 254 254 253 253 252 251 250 248 245 246 nan nan 252 nan nan nan nan nan nan nan nan nan nan 280 274 266 nan nan 280 281 nan nan 245 nan 240 nan 238 233 232 230 229 241 240 241 241 242 245 nan
223 216 218 nan 232 226 224 nan nan nan nan nan 220 220 218 224 224 224 nan nan nan nan 258 260 256 253 252 254 252 250 249 253 nan nan nan 247 249 251 nan nan nan 250 250 251 251 248 244 244 250 252 252 nan nan nan nan nan nan nan 236 239 248 254 nan 255 nan nan nan nan nan 268 263 261 251 251 246 239 239 230 210 225 240 nan nan 242 243 nan
nan 218 nan nan 232 nan nan nan nan nan nan nan nan 220 219 221 227 223 nan nan nan 240 249 258 261 257 253 254 246 236 239 nan nan nan nan 240 244 nan nan nan 251 249 249 250 248 245 241 244 245 249 247 nan nan nan nan nan nan nan nan nan nan nan nan nan nan nan nan 296 283 275 273 266 256 245 240 234 232 nan nan nan nan nan 238 236 nan nan
nan 224 nan nan nan nan nan nan nan nan nan nan nan nan nan 218 225 221 nan nan nan 254 255 256 nan nan nan nan nan 237 nan nan nan nan 241 nan nan nan 246 nan 249 249 247 248 248 244 238 238 241 243 243 nan nan nan nan nan nan nan nan nan nan nan nan nan nan nan nan 266 276 286 291 283 256 241 236 241 238 nan nan nan 239 nan 238 nan nan nan
nan nan nan nan nan nan nan nan nan nan nan nan nan nan nan nan nan 232 nan nan 240 nan nan nan nan nan nan nan nan nan nan nan nan nan 239 nan 240 nan nan 244 244 nan nan 244 247 246 245 242 243 246 nan nan nan nan nan nan nan nan nan nan nan nan 252 251 nan nan nan nan nan 252 279 285 268 241 233 235 239 nan nan nan nan 243 244 nan nan nan
nan nan nan nan nan nan nan nan nan nan nan nan nan nan nan nan nan 237 nan nan nan nan nan nan nan nan nan nan nan nan nan nan nan nan nan nan nan nan 245 246 243 242 nan nan nan 248 248 245 245 nan nan nan nan nan nan nan nan nan nan nan nan nan nan 249 247 247 246 242 nan 227 240 259 265 251 241 237 240 nan nan nan nan nan nan nan nan nan
nan nan nan nan nan nan nan nan nan nan nan nan nan nan nan nan nan nan nan nan 243 nan nan nan nan nan nan nan nan nan nan nan nan nan nan nan nan nan nan 247 nan nan nan nan nan nan 244 244 245 nan nan nan nan nan nan nan nan nan nan nan nan nan nan nan nan nan nan 244 nan 237 nan nan 255 262 252 235 236 nan nan nan nan nan nan nan nan nan
nan nan nan nan nan nan nan nan nan nan nan nan nan nan nan nan nan nan nan 235 240 245 252 254 254 255 257 nan nan nan nan nan nan nan nan nan nan nan nan nan 243 nan nan nan nan nan 242 240 242 nan nan nan nan nan nan nan nan nan nan nan nan nan nan nan nan nan nan nan nan nan nan nan nan 249 nan 243 nan nan nan nan nan nan nan nan nan nan
nan nan nan nan nan nan nan nan nan nan nan nan nan nan nan nan nan nan nan 238 241 251 nan nan nan nan nan nan nan nan nan nan nan nan nan nan nan nan nan nan 243 nan nan nan nan nan nan nan nan nan nan nan nan nan nan nan nan nan nan nan nan nan nan nan nan nan nan nan nan nan nan nan nan nan 239 nan nan nan nan nan nan nan nan nan nan nan
nan nan nan nan nan nan nan nan nan nan nan nan nan nan nan nan nan nan nan nan nan nan nan nan nan nan nan nan nan nan nan nan nan nan nan nan nan nan nan 242 nan nan nan nan nan nan nan nan nan nan nan nan nan nan nan nan nan nan nan nan nan nan nan nan nan nan nan nan nan nan nan nan nan nan nan nan nan nan nan nan nan nan nan nan nan nan
nan nan nan nan nan nan nan nan nan nan nan nan nan nan nan nan nan nan nan nan nan nan nan nan nan nan nan nan nan nan nan nan nan nan nan nan nan nan nan nan nan nan nan nan nan nan nan nan nan nan nan nan nan nan nan nan nan nan nan nan nan nan nan nan nan nan nan nan nan nan nan nan nan nan nan nan nan nan nan nan nan nan nan nan nan nan
nan nan nan nan nan nan nan nan nan nan nan nan nan nan nan nan nan nan nan nan nan nan nan nan nan nan nan nan nan nan nan nan nan nan nan nan nan nan nan nan nan nan nan nan nan nan nan nan nan nan nan nan nan nan nan nan nan nan nan nan nan nan nan nan nan nan nan nan nan nan nan nan nan nan nan nan nan nan nan nan nan nan nan nan nan nan
nan nan nan nan nan nan nan nan nan nan nan nan nan nan nan nan nan nan nan nan nan nan nan nan nan nan nan nan nan nan nan nan nan nan nan nan nan nan nan nan nan nan nan nan nan nan nan nan nan nan nan nan nan nan nan nan nan nan nan nan nan nan nan nan nan nan nan nan nan nan nan nan nan nan nan nan nan nan nan nan nan nan nan nan nan nan
nan nan nan nan nan nan nan nan nan nan nan nan nan nan nan nan nan nan nan nan nan nan nan nan nan nan nan nan nan nan nan nan nan nan nan nan nan nan nan nan nan nan nan nan nan nan nan nan nan nan nan nan nan nan nan nan nan nan nan nan nan nan nan nan nan nan nan nan nan nan nan nan nan nan nan nan nan nan nan nan nan nan nan nan nan nan
nan nan nan nan nan nan nan nan nan nan nan nan nan nan nan nan nan nan nan nan nan nan nan nan nan nan nan nan nan nan nan nan nan nan nan nan nan nan nan nan nan nan nan nan nan nan nan nan nan nan nan nan nan nan nan nan nan nan nan nan nan nan nan nan nan nan nan nan nan nan nan nan nan nan nan nan nan nan nan nan nan nan nan nan nan nan
nan nan nan nan nan nan nan nan nan nan nan nan nan nan nan nan nan nan nan nan nan nan nan nan nan nan nan nan nan nan nan nan nan nan nan nan nan nan nan nan nan nan nan nan nan nan nan nan nan nan nan nan nan nan nan nan nan nan nan nan nan nan nan nan nan nan nan nan nan nan nan nan nan nan nan nan nan nan nan nan nan nan nan nan nan nan
nan nan nan nan nan nan nan nan nan nan nan nan nan nan nan nan nan nan nan nan nan nan nan nan nan nan nan nan nan nan nan nan nan nan nan nan nan nan nan nan nan nan nan nan nan nan nan nan nan nan nan nan nan nan nan nan nan nan nan nan nan nan nan nan nan nan nan nan nan nan nan nan nan nan nan nan nan nan nan nan nan nan nan nan nan nan
nan nan nan nan nan nan nan nan nan nan nan nan nan nan nan nan nan nan nan nan nan nan nan nan nan nan nan nan nan nan nan nan nan nan nan nan nan nan nan nan nan nan nan nan nan nan nan nan nan nan nan nan nan nan nan nan nan nan nan nan nan nan nan nan nan nan nan nan nan nan nan nan nan nan nan nan nan nan nan nan nan nan nan nan nan nan
nan nan nan nan nan nan nan nan nan nan nan nan nan nan nan nan nan nan nan nan nan nan nan nan nan nan nan nan nan nan nan nan nan nan nan nan nan nan nan nan nan nan nan nan nan nan nan nan nan nan nan nan nan nan nan nan nan nan nan nan nan nan nan nan nan nan nan nan nan nan nan nan nan nan nan nan nan nan nan nan nan nan nan nan nan nan
nan nan nan nan nan nan nan nan nan nan nan nan nan nan nan nan nan nan nan nan nan nan nan nan nan nan nan nan nan nan nan nan nan nan nan nan nan nan nan nan nan nan nan nan nan nan nan nan nan nan nan nan nan nan nan nan nan nan nan nan nan nan nan nan nan nan nan nan nan nan nan nan nan nan nan nan nan nan nan nan nan nan nan nan nan nan
nan nan nan nan nan nan nan nan nan nan nan nan nan nan nan nan nan nan nan nan nan nan nan nan nan nan nan nan nan nan nan nan nan nan nan nan nan nan nan nan nan nan nan nan nan nan nan nan nan nan nan nan nan nan nan nan nan nan nan nan nan nan nan nan nan nan nan nan nan nan nan nan nan nan nan nan nan nan nan nan nan nan nan nan nan nan
nan nan nan nan nan nan nan nan nan nan nan nan nan nan nan nan nan nan nan nan nan nan nan nan nan nan nan nan nan nan nan nan nan nan nan nan nan nan nan nan nan nan nan nan nan nan nan nan nan nan nan nan nan nan nan nan nan nan nan nan nan nan nan nan nan nan nan nan nan nan nan nan nan nan nan nan nan nan nan nan nan nan nan nan nan nan
nan nan nan nan nan nan nan nan nan nan nan nan nan nan nan nan nan nan nan nan nan nan nan nan nan nan nan nan nan nan nan nan nan nan nan nan nan nan nan nan nan nan nan nan nan nan nan nan nan nan nan nan nan nan nan nan nan nan nan nan nan nan nan nan nan nan nan nan nan nan nan nan nan nan nan nan nan nan nan nan nan nan nan nan nan nan